#timestamp,LO_Frequency,Hit,StdDev 
1702695615.9,286046997.1,N
1702695635.7,286046997.7,N
1702695655.6,286046996.2,N
1702695675.4,286046995.1,N
1702695695.2,286046997.6,N
1702695715.1,286046996.9,N
1702695716.0,286046996.9,N
1702695735.8,286046997.7,N
1702695755.7,286046998.9,N
1702695775.5,286046999.6,N
1702695795.4,286046998.5,N
1702695815.2,286047001.2,N
1702695835.0,286046999.9,N
1702695835.9,286046999.9,N
1702695855.8,286047001.0,N
1702695875.6,286047000.2,N
1702695895.4,286046999.7,N
1702695915.3,286047001.4,N
1702695935.1,286047000.0,N
1702695955.9,286046999.7,N
1702695975.7,286046999.9,N
1702695995.5,286047000.3,N
1702696015.4,286047001.1,N
1702696035.2,286046999.5,N
1702696055.0,286046999.0,N
1702696055.9,286046999.0,N
1702696075.8,286046998.2,N
1702696095.6,286046997.8,N
1702696115.5,286046996.8,N
1702696135.3,286046996.9,N
1702696155.2,286046997.2,N
1702696175.9,286046999.5,N
1702696195.7,286046998.3,N
1702696215.6,286046998.7,N
1702696235.4,286047000.6,N
1702696255.2,286047000.5,N
1702696275.1,286047001.0,N
1702696276.0,286047001.0,N
1702696295.8,286047000.7,N
1702696315.7,286046998.2,N
1702696335.5,286046998.6,N
1702696355.3,286047000.9,N
1702696375.2,286047000.4,N
1702696395.0,286047000.8,N
1702696395.9,286047000.8,N
1702696415.7,286046998.5,N
1702696435.6,286046998.7,N
1702696455.4,286046999.4,N
1702696475.3,286046996.6,N
1702696495.1,286046997.4,N
1702696496.0,286046997.4,N
1702696515.8,286046996.5,N
1702696535.7,286046999.1,N
1702696555.5,286046996.5,N
1702696575.3,286046998.8,N
1702696595.2,286046999.1,N
1702696615.0,286046999.4,N
1702696615.9,286046999.4,N
1702696635.8,286046997.0,N
1702696655.6,286046996.5,N
1702696675.4,286046998.1,N
1702696695.3,286046998.1,N
1702696715.1,286046998.3,N
1702696735.8,286046998.3,N
1702696755.7,286047000.9,N
1702696775.5,286046998.3,N
1702696795.4,286047001.0,N
1702696815.2,286046999.9,N
1702696835.0,286047002.8,N
1702696835.9,286047002.8,N
1702696855.8,286047002.6,N
1702696875.6,286047002.7,N
1702696895.5,286047000.7,N
1702696915.3,286047000.9,N
1702696935.4,286046999.9,N
1702696955.2,286047001.0,N
1702696975.1,286047001.1,N
1702696976.0,286047001.1,N
1702696995.8,286046998.1,N
1702697015.7,286046998.5,N
1702697035.5,286046998.6,N
1702697055.3,286046998.2,N
1702697075.2,286046998.9,N
1702697095.0,286047000.4,N
1702697095.9,286047000.4,N
1702697115.8,286047000.6,N
1702697135.6,286046998.3,N
1702697155.4,286046998.5,N
1702697175.3,286046998.4,N
1702697195.1,286047000.7,N
1702697215.9,286046998.4,N
1702697235.7,286046998.2,N
1702697255.5,286046998.7,N
1702697275.4,286046998.2,N
1702697295.2,286046998.6,N
1702697315.0,286046998.8,N
1702697315.9,286046998.8,N
1702697335.8,286046999.4,N
1702697355.6,286046998.1,N
1702697375.4,286046998.6,N
1702697395.3,286046998.1,N
1702697415.1,286047000.4,N
1702697435.9,286047000.2,N
1702697455.7,286047000.2,N
1702697475.5,286047000.2,N
1702697495.4,286047000.6,N
1702697515.2,286047000.7,N
1702697535.1,286046998.3,N
1702697536.0,286046998.3,N
1702697555.8,286046998.8,N
1702697575.6,286046998.6,N
1702697595.5,286046999.5,N
1702697615.3,286046996.7,Y
1702697635.2,286047001.2,P
1702697655.9,286047000.5,N
1702697675.7,286047000.6,N
1702697695.6,286047001.2,N
1702697715.4,286047001.2,N
1702697735.2,286046998.1,N
1702697755.1,286047000.4,N
1702697756.0,286047000.4,N
1702697775.8,286047002.6,N
1702697795.7,286047002.5,N
1702697815.5,286046999.7,N
1702697835.3,286047000.8,N
1702697855.2,286047002.6,N
1702697875.0,286047002.2,N
1702697875.9,286047002.2,N
1702697895.8,286047002.4,N
1702697915.6,286047001.0,N
1702697935.4,286047002.7,N
1702697955.3,286047002.5,N
1702697975.1,286047001.0,N
1702697995.8,286046998.1,N
1702698015.7,286046998.5,N
1702698035.5,286047001.2,N
1702698055.4,286046999.8,N
1702698075.2,286047000.6,N
1702698095.0,286047000.9,N
1702698095.9,286047000.9,N
1702698115.8,286046998.9,N
1702698135.6,286046996.7,N
1702698155.4,286046997.1,N
1702698175.3,286046999.4,N
1702698195.1,286046996.7,N
1702698215.9,286046998.5,N
1702698265.7,286046998.9,E
1702698275.6,286046998.1,N
1702698295.5,286047001.1,P
1702698315.3,286047000.5,N
1702698335.2,286047002.5,N
1702698355.9,286047002.5,N
1702698375.7,286047002.7,N
1702698395.6,286047000.4,N
1702698415.4,286047000.9,N
1702698435.3,286047000.0,N
1702698455.1,286047002.7,N
1702698456.0,286047002.7,N
1702698475.8,286047002.4,N
1702698495.7,286047002.8,N
1702698515.5,286047000.3,N
1702698535.3,286047001.0,N
1702698555.2,286047000.5,N
1702698575.0,286047002.5,N
1702698575.9,286047002.5,N
1702698595.8,286047002.7,N
1702698615.6,286047000.6,N
1702698635.4,286047001.2,N
1702698655.3,286046999.1,N
1702698675.1,286046998.8,N
1702698695.8,286047000.7,N
1702698715.7,286047000.5,N
1702698735.5,286047000.2,N
1702698755.4,286047002.8,N
1702698775.2,286047003.8,N
1702698795.0,286047003.8,N
1702698795.9,286047003.8,N
1702698815.8,286047004.0,N
1702698835.6,286047001.8,N
1702698855.4,286046999.7,N
1702698875.3,286047000.0,N
1702698895.1,286047001.0,N
1702698915.9,286046998.6,N
1702698935.7,286047000.6,N
1702698955.5,286047002.3,N
1702698975.4,286047001.4,N
1702698995.2,286047002.0,N
1702699015.0,286047001.3,N
1702699015.9,286047001.3,N
1702699035.8,286047003.7,N
1702699055.6,286047004.1,N
1702699075.5,286047003.6,N
1702699095.3,286047004.2,N
1702699115.1,286047002.1,N
1702699135.9,286047002.0,N
1702699155.7,286047001.5,N
1702699175.5,286047000.1,N
1702699195.4,286047000.3,N
